Weather Roundup
Issued by NWS Springfield, MO

Home | Current Version | Previous Version | Text Only | Print | Product List | Glossary On
Versions: 1 2 3 4 5 6 7 8 9 10 11 12 13 14 15 16 17 18 19 20 21 22 23 24 25 26 27 28 29 30 31 32 33 34 35 36 37 38 39 40 41 42 43 44 45 46 47 48 49 50
000
NZUS99 KSGF 270359
HRRSGF

HOURLY WEATHER
NATIONAL WEATHER SERVICE SPRINGFIELD MO
1000 PM CST FRI DEC 26 2014

......SGF CWA......

CITY           SKY/WX    TMP DP  RH WIND       PRES   REMARKS
SPRINGFIELD    CLOUDY    49  47  93 S13       30.01R
JOPLIN         CLOUDY    53  51  93 S12       30.00R
WEST PLAINS    LGT RAIN  46  44  93 S6        30.08R FOG
ROLLA          CLOUDY    45  43  93 S13       30.02R
OSAGE BEACH    CLOUDY    48  45  87 S12       30.02S

......SURROUNDING SGF CWA......

CITY           SKY/WX    TMP DP  RH WIND       PRES   REMARKS
CHANUTE        CLOUDY    41  37  86 NW12      30.03R
PARSONS        CLOUDY    43  39  86 NW12      30.04R
COFFEYVILLE    LGT RAIN  44  40  85 NW9       30.04R
EMPORIA        CLOUDY    35  33  92 W7        30.04R FOG     WCI  29
SILOAM SPRINGS CLOUDY    52  46  82 S9        30.04R
HARRISON AR    CLOUDY    49  49 100 S8        30.05R
NEAR YELLVILLE CLOUDY    48  45  87 CALM      30.06S

......KANSAS AND MISSOURI......

CITY           SKY/WX    TMP DP  RH WIND       PRES   REMARKS
KANSAS CTY INT CLOUDY    38  34  85 NW7       29.99R WCI  33
DOWNTOWN KC    CLOUDY    41  34  76 NW3       29.99S
COLUMBIA       CLOUDY    50  48  93 S14       30.00S
SEDALIA        CLOUDY    53  49  86 S9        29.99R
ST JOSEPH      CLOUDY    36  33  89 NW3       30.01R
ST LOUIS       CLOUDY    53  40  61 S9        30.04S
SPIRIT OF STL  LGT RAIN  52  41  66 SW8G16    30.05R
KIRKSVILLE     CLOUDY    46  44  93 NE6       29.96R
WICHITA        CLOUDY    34  29  82 NW14      30.10R WCI  25
TOPEKA         CLOUDY    38  33  82 W3        30.03R
OLATHE         CLOUDY    40  35  83 NW6       29.98R

......TENNESSEE......

CITY           SKY/WX    TMP DP  RH WIND       PRES   REMARKS
MEMPHIS        MOCLDY    51  43  74 S8        30.14S
NASHVILLE      CLOUDY    48  38  68 S7        30.22S

......ARKANSAS.......

CITY           SKY/WX    TMP DP  RH WIND       PRES   REMARKS
FAYETTEVILLE   CLOUDY    50  50 100 S6        30.04R
FT SMITH       CLOUDY    50  48  93 E6        30.04R
LITTLE ROCK    LGT RAIN  53  49  86 SE10      30.09R FOG

......OKLAHOMA.......

CITY           SKY/WX    TMP DP  RH WIND       PRES   REMARKS
TULSA          CLOUDY    49  43  80 NW16      30.03R
PONCA CITY     CLOUDY    37  32  82 NW10G20   30.10R WCI  30
MCALESTER      CLOUDY    57  54  89 SE5       30.01S
OKLAHOMA CITY  MOCLDY    38  30  73 N17       30.08R WCI  28

......IOWA............

CITY           SKY/WX    TMP DP  RH WIND       PRES   REMARKS
DES MOINES     DRIZZLE   35  32  88 CALM      29.98S FOG
QUAD CITIES    CLOUDY    43  39  86 E3        29.96S

......ILLINOIS........

CITY           SKY/WX    TMP DP  RH WIND       PRES   REMARKS
QUINCY         CLOUDY    52  45  77 S13       29.97R
CHICAGO        MOCLDY    46  41  82 S9        30.01F




USA.gov is the U.S. government's official web portal to all federal, state and local government web resources and services.